Weather History for Poplar Bluff, MO

Change the Weather History Date:

Thursday, November 13, 2014

  Actual Average Record
Temperature  
Mean Temperature 30 °F -  
Max Temperature 37 °F 58 °F 84 °F (1955)
Min Temperature 21 °F 34 °F 12 °F (1986)
Degree Days  
Heating Degree Days 35    
Moisture  
Dew Point 11 °F    
Average Humidity 49    
Maximum Humidity 75    
Minimum Humidity 34    
Precipitation  
Precipitation 0.00 in - - ()
Sea Level Pressure  
Sea Level Pressure 30.46 in    
Wind  
Wind Speed 10 mph (NNW)    
Max Wind Speed 17 mph    
Max Gust Speed 22 mph    
Visibility 10 miles    
Events      
Averages and records for this station are not official NWS values.
T = Trace of Precipitation, MM = Missing Value Source: NWS Daily Summary

Daily Weather History Graph

Daily Weather History Graph

Search for Another Location

Airport:

Trip Planner

Search our weather history database for the weather conditions in past years. The results will help you decide how hot, cold, wet, or windy it might be!

Date:

Astronomy

Nov. 13, 2014 Rise Set
Actual Time 6:37 AM CST 4:53 PM CST
Civil Twilight 6:09 AM CST 5:20 PM CST
Nautical Twilight 5:38 AM CST 5:52 PM CST
Astronomical Twilight 5:08 AM CST 6:22 PM CST
Moon 11:07 PM CST (11/13) 11:59 AM CST (11/13)
Length of Visible Light 11h 11m
Length of Day
10h 16m
Waning Gibbous, 58% of the Moon is Illuminated
Nov 13
Waning Gibbous
Nov 14
Last Quarter
Nov 22
New
Nov 29
First Quarter
Dec 6
Full

Hourly Weather History & Observations

Time (CST) Temp. Windchill Dew Point Humidity Pressure Visibility Wind Dir Wind Speed Gust Speed Precip Events Conditions
12:53 AM 28.9 °F 21.1 °F 15.1 °F 56% 30.43 in 10.0 mi NNW 8.1 mph - N/A   Partly Cloudy
1:53 AM 28.0 °F 20.0 °F 14.0 °F 56% 30.44 in 10.0 mi NNW 8.1 mph - N/A   Mostly Cloudy
2:53 AM 30.0 °F 19.1 °F 10.9 °F 45% 30.44 in 10.0 mi North 15.0 mph - N/A   Overcast
3:53 AM 28.9 °F 17.7 °F 10.9 °F 47% 30.45 in 10.0 mi NW 15.0 mph - N/A   Overcast
4:53 AM 27.0 °F 15.2 °F 9.0 °F 47% 30.46 in 10.0 mi NW 15.0 mph - N/A   Partly Cloudy
5:53 AM 25.0 °F 15.5 °F 9.0 °F 51% 30.46 in 10.0 mi NNW 9.2 mph - N/A   Clear
6:53 AM 24.1 °F 16.0 °F 10.0 °F 55% 30.48 in 10.0 mi NW 6.9 mph - N/A   Clear
7:53 AM 27.0 °F 18.0 °F 10.0 °F 49% 30.49 in 10.0 mi NNW 9.2 mph - N/A   Clear
8:53 AM 28.9 °F 16.9 °F 9.0 °F 43% 30.49 in 10.0 mi North 17.3 mph 20.7 mph N/A   Clear
9:53 AM 30.9 °F 19.8 °F 9.0 °F 40% 30.49 in 10.0 mi NNW 16.1 mph - N/A   Clear
10:53 AM 34.0 °F 25.0 °F 10.0 °F 37% 30.48 in 10.0 mi NNW 12.7 mph - N/A   Clear
11:53 AM 35.1 °F 26.9 °F 10.0 °F 35% 30.46 in 10.0 mi NNW 11.5 mph - N/A   Clear
12:53 PM 35.1 °F 26.9 °F 12.0 °F 39% 30.43 in 10.0 mi North 11.5 mph 21.9 mph N/A   Clear
1:53 PM 36.0 °F 27.5 °F 10.0 °F 34% 30.42 in 10.0 mi NW 12.7 mph - N/A   Clear
2:53 PM 37.0 °F 27.7 °F 10.9 °F 34% 30.41 in 10.0 mi North 16.1 mph 21.9 mph N/A   Clear
3:53 PM 35.1 °F 27.9 °F 10.9 °F 37% 30.41 in 10.0 mi NNW 9.2 mph - N/A   Clear
4:53 PM 32.0 °F 24.8 °F 10.9 °F 42% 30.43 in 10.0 mi NNW 8.1 mph - N/A   Clear
5:53 PM 28.9 °F 22.8 °F 12.9 °F 51% 30.45 in 10.0 mi NNW 5.8 mph - N/A   Clear
6:53 PM 27.0 °F 20.5 °F 12.9 °F 56% 30.46 in 10.0 mi NNW 5.8 mph - N/A   Clear
7:53 PM 26.1 °F 17.6 °F 12.9 °F 58% 30.46 in 10.0 mi NNW 8.1 mph - N/A   Clear
8:53 PM 26.1 °F 18.4 °F 12.9 °F 58% 30.48 in 10.0 mi NNW 6.9 mph - N/A   Clear
9:53 PM 24.1 °F 19.7 °F 12.9 °F 62% 30.48 in 10.0 mi North 3.5 mph - N/A   Clear
10:53 PM 23.0 °F - 14.0 °F 68% 30.48 in 10.0 mi Calm Calm - N/A   Clear
11:53 PM 21.9 °F - 15.1 °F 75% 30.48 in 10.0 mi Calm Calm - N/A   Scattered Clouds